Location: New Canada
(47.1017°N, 68.5042°W)
Time: 06:24:59
(UTC+00:00)

EO-79 - Pass Details

Date: 08 April 2023
Orbit: 578 x 593 km, 98.0° (Epoch: 03 June)

Event Time Altitude Azimuth Distance (km) Brightness Sun altitude
Rises 06:42:19 0° 15° (NNE) 2,822 ? -29.0°
Reaches altitude 10° 06:44:30 10° 18° (NNE) 1,914 ? -28.8°
Enters shadow 06:47:22 42° 32° (NNE) 838 ? -28.5°
